Previsão horária em Bolshie Klyuchi

Hoje, 8 Março, Segunda-feira

Tempo Temperatura Precipitação Vento Pressão Humidade
00:00 -9°C° 0 mm 1 m/s 757 mmHg 95%
01:00 -9°C° 0.1 mm 1 m/s 757 mmHg 96%
02:00 -10°C° 0.1 mm 1 m/s 758 mmHg 96%
03:00 -10°C° 0 mm 1 m/s 758 mmHg 96%
04:00 -11°C° 0 mm 1 m/s 758 mmHg 97%
05:00 -11°C° 0 mm 1 m/s 759 mmHg 97%
06:00 -11°C° 0 mm 1 m/s 759 mmHg 97%
07:00 -10°C° 0 mm 1 m/s 759 mmHg 92%
08:00 -9°C° 0 mm 1 m/s 759 mmHg 87%
09:00 -7°C° 0 mm 1 m/s 759 mmHg 82%
10:00 -6°C° 0 mm 1 m/s 759 mmHg 74%
11:00 -3°C° 0 mm 1 m/s 759 mmHg 67%
12:00 -1°C° 0 mm 1 m/s 759 mmHg 59%
13:00 -1°C° 0 mm 1 m/s 758 mmHg 57%
14:00 0°C° 0 mm 1 m/s 758 mmHg 55%
15:00 +1°C° 0 mm 1 m/s 757 mmHg 53%
16:00 -1°C° 0 mm 1 m/s 757 mmHg 60%
17:00 -2°C° 0 mm 1 m/s 757 mmHg 67%
18:00 -3°C° 0 mm 1 m/s 757 mmHg 74%
19:00 -4°C° 0 mm 1 m/s 757 mmHg 77%
20:00 -4°C° 0 mm 1 m/s 757 mmHg 81%
21:00 -4°C° 0 mm 1 m/s 757 mmHg 84%
22:00 -6°C° 0 mm 1 m/s 756 mmHg 85%
23:00 -7°C° 0 mm 2 m/s 756 mmHg 86%

Amanhã, 9 Março, Terça-feira

Tempo Temperatura Precipitação Vento Pressão Humidade
00:00 -7°C° 0 mm 2 m/s 755 mmHg 88%
01:00 -7°C° 0 mm 2 m/s 755 mmHg 85%
02:00 -7°C° 0 mm 2 m/s 754 mmHg 83%
03:00 -7°C° 0 mm 2 m/s 754 mmHg 81%
04:00 -7°C° 0 mm 2 m/s 753 mmHg 81%
05:00 -7°C° 0 mm 2 m/s 752 mmHg 82%
06:00 -7°C° 0 mm 2 m/s 751 mmHg 83%
07:00 -6°C° 0 mm 3 m/s 751 mmHg 79%
08:00 -4°C° 0 mm 3 m/s 750 mmHg 76%
09:00 -2°C° 0 mm 4 m/s 749 mmHg 72%
10:00 0°C° 0 mm 5 m/s 749 mmHg 68%
11:00 +1°C° 0 mm 5 m/s 748 mmHg 64%
12:00 +3°C° 0 mm 6 m/s 748 mmHg 59%
13:00 +2°C° 0.2 mm 7 m/s 747 mmHg 62%
14:00 0°C° 0.2 mm 7 m/s 747 mmHg 65%
15:00 -1°C° 0.2 mm 7 m/s 747 mmHg 68%
16:00 -3°C° 0.1 mm 7 m/s 748 mmHg 67%
17:00 -4°C° 0.1 mm 7 m/s 748 mmHg 66%
18:00 -5°C° 0.1 mm 6 m/s 749 mmHg 65%
19:00 -5°C° 0.1 mm 6 m/s 750 mmHg 69%
20:00 -5°C° 0.1 mm 6 m/s 751 mmHg 73%
21:00 -6°C° 0.1 mm 5 m/s 752 mmHg 76%
22:00 -6°C° 0 mm 5 m/s 752 mmHg 77%
23:00 -8°C° 0 mm 6 m/s 753 mmHg 77%

Depois de amanhã, 10 Março, Quarta-feira

Tempo Temperatura Precipitação Vento Pressão Humidade
00:00 -8°C° 0 mm 6 m/s 753 mmHg 78%
01:00 -8°C° 0 mm 6 m/s 754 mmHg 78%
02:00 -8°C° 0 mm 5 m/s 754 mmHg 78%
03:00 -8°C° 0 mm 5 m/s 755 mmHg 77%
04:00 -9°C° 0 mm 4 m/s 755 mmHg 80%
05:00 -9°C° 0 mm 3 m/s 756 mmHg 83%
06:00 -9°C° 0 mm 3 m/s 757 mmHg 86%
07:00 -9°C° 0 mm 3 m/s 757 mmHg 80%
08:00 -8°C° 0 mm 3 m/s 758 mmHg 75%
09:00 -7°C° 0 mm 3 m/s 758 mmHg 70%
10:00 -6°C° 0 mm 3 m/s 758 mmHg 65%
11:00 -5°C° 0 mm 3 m/s 758 mmHg 61%
12:00 -3°C° 0 mm 2 m/s 758 mmHg 57%
13:00 -2°C° 0 mm 2 m/s 758 mmHg 55%
14:00 -2°C° 0 mm 2 m/s 758 mmHg 53%
15:00 -1°C° 0 mm 2 m/s 757 mmHg 52%
16:00 -2°C° 0 mm 2 m/s 757 mmHg 56%
17:00 -1°C° 0 mm 1 m/s 757 mmHg 60%
18:00 -2°C° 0 mm 1 m/s 757 mmHg 64%
19:00 -2°C° 0 mm 1 m/s 757 mmHg 64%
20:00 -3°C° 0 mm 1 m/s 758 mmHg 64%
21:00 -3°C° 0 mm 1 m/s 758 mmHg 65%
22:00 -3°C° 0 mm 1 m/s 757 mmHg 66%
23:00 -3°C° 0 mm 1 m/s 757 mmHg 67%

11 Março, Quinta-feira

Tempo Temperatura Precipitação Vento Pressão Humidade
00:00 -4°C° 0 mm 1 m/s 757 mmHg 68%
01:00 -3°C° 0 mm 1 m/s 756 mmHg 71%
02:00 -3°C° 0 mm 1 m/s 756 mmHg 73%
03:00 -3°C° 0 mm 1 m/s 756 mmHg 75%
04:00 -4°C° 0 mm 1 m/s 756 mmHg 78%
05:00 -4°C° 0 mm 1 m/s 756 mmHg 80%
06:00 -4°C° 0 mm 1 m/s 756 mmHg 83%
07:00 -3°C° 0 mm 1 m/s 756 mmHg 81%
08:00 -1°C° 0 mm 1 m/s 756 mmHg 79%
09:00 0°C° 0 mm 1 m/s 757 mmHg 77%
10:00 +1°C° 0 mm 1 m/s 757 mmHg 71%
11:00 +2°C° 0 mm 1 m/s 757 mmHg 66%
12:00 +2°C° 0 mm 2 m/s 757 mmHg 60%
13:00 +2°C° 0 mm 2 m/s 757 mmHg 60%
14:00 +3°C° 0 mm 2 m/s 757 mmHg 59%
15:00 +3°C° 0 mm 2 m/s 757 mmHg 59%
16:00 +3°C° 0 mm 1 m/s 757 mmHg 66%
17:00 +1°C° 0 mm 1 m/s 757 mmHg 73%
18:00 0°C° 0 mm 1 m/s 757 mmHg 80%
19:00 -1°C° 0 mm 1 m/s 758 mmHg 82%
20:00 -2°C° 0 mm 0 m/s 758 mmHg 85%
21:00 -3°C° 0 mm 0 m/s 759 mmHg 87%
22:00 -3°C° 0 mm 0 m/s 759 mmHg 88%
23:00 -3°C° 0 mm 0 m/s 759 mmHg 90%

12 Março, Sexta-feira

Tempo Temperatura Precipitação Vento Pressão Humidade
00:00 -4°C° 0 mm 0 m/s 759 mmHg 91%
01:00 -4°C° 0 mm 0 m/s 760 mmHg 91%
02:00 -5°C° 0 mm 0 m/s 760 mmHg 91%
03:00 -5°C° 0 mm 0 m/s 760 mmHg 92%
04:00 -5°C° 0 mm 0 m/s 760 mmHg 92%
05:00 -6°C° 0 mm 0 m/s 760 mmHg 91%
06:00 -6°C° 0 mm 0 m/s 761 mmHg 91%
07:00 -4°C° 0 mm 0 m/s 761 mmHg 83%
08:00 -3°C° 0 mm 0 m/s 761 mmHg 76%
09:00 -2°C° 0 mm 0 m/s 761 mmHg 68%
10:00 0°C° 0 mm 0 m/s 761 mmHg 60%
11:00 +2°C° 0 mm 1 m/s 761 mmHg 52%
12:00 +4°C° 0 mm 1 m/s 761 mmHg 43%
13:00 +4°C° 0 mm 1 m/s 761 mmHg 43%
14:00 +4°C° 0 mm 1 m/s 761 mmHg 42%
15:00 +5°C° 0 mm 1 m/s 760 mmHg 42%
16:00 +3°C° 0 mm 1 m/s 760 mmHg 50%
17:00 +2°C° 0 mm 1 m/s 760 mmHg 57%
18:00 +1°C° 0 mm 1 m/s 760 mmHg 65%
19:00 -1°C° 0 mm 0 m/s 761 mmHg 66%
20:00 -1°C° 0 mm 0 m/s 761 mmHg 66%
21:00 -2°C° 0 mm 0 m/s 761 mmHg 67%
22:00 -2°C° 0 mm 0 m/s 761 mmHg 67%
23:00 -2°C° 0 mm 0 m/s 761 mmHg 68%

13 Março, Sábado

Tempo Temperatura Precipitação Vento Pressão Humidade
00:00 -2°C° 0 mm 0 m/s 760 mmHg 68%
01:00 -3°C° 0 mm 0 m/s 760 mmHg 69%
02:00 -3°C° 0 mm 0 m/s 760 mmHg 69%
03:00 -2°C° 0 mm 1 m/s 760 mmHg 70%
04:00 -3°C° 0 mm 1 m/s 760 mmHg 71%
05:00 -3°C° 0 mm 1 m/s 760 mmHg 71%
06:00 -3°C° 0 mm 1 m/s 759 mmHg 71%
07:00 -2°C° 0 mm 1 m/s 759 mmHg 65%
08:00 0°C° 0 mm 1 m/s 759 mmHg 59%
09:00 +1°C° 0 mm 1 m/s 758 mmHg 53%
10:00 +3°C° 0 mm 1 m/s 758 mmHg 47%
11:00 +5°C° 0 mm 1 m/s 757 mmHg 40%
12:00 +7°C° 0 mm 1 m/s 757 mmHg 34%
13:00 +8°C° 0 mm 1 m/s 756 mmHg 34%
14:00 +8°C° 0 mm 1 m/s 756 mmHg 33%
15:00 +9°C° 0 mm 1 m/s 755 mmHg 33%
16:00 +7°C° 0 mm 1 m/s 755 mmHg 39%
17:00 +4°C° 0 mm 0 m/s 754 mmHg 45%
18:00 +2°C° 0 mm 0 m/s 754 mmHg 51%
19:00 +2°C° 0 mm 0 m/s 754 mmHg 52%
20:00 +3°C° 0 mm 1 m/s 754 mmHg 54%
21:00 +3°C° 0 mm 1 m/s 754 mmHg 56%
22:00 +2°C° 0 mm 1 m/s 754 mmHg 59%
23:00 +2°C° 0 mm 1 m/s 754 mmHg 63%
Mostrar mais